Plymouth, NH

6:00 PM EST on February 13, 2016 (GMT -0500)
Plymouth

Weather History for K1P1 - March, 2014

Change the Weather History Date:

Monday, March 17, 2014

  Actual Average (KLCI) Record (KLCI)
Temperature  
Mean Temperature 13 °F -  
Max Temperature 24 °F 44 °F 66 °F (2003)
Min Temperature 2 °F 22 °F 5 °F (1997)
Degree Days  
Heating Degree Days 52    
Moisture  
Dew Point -7 °F    
Average Humidity 42    
Maximum Humidity 69    
Minimum Humidity 25    
Precipitation  
Precipitation 0.00 in - - ()
Sea Level Pressure  
Sea Level Pressure 30.12 in    
Wind  
Wind Speed 5 mph (WNW)    
Max Wind Speed 16 mph    
Max Gust Speed 22 mph    
Visibility 10 miles    
Events      
Averages and records for this station are not official NWS values.
T = Trace of Precipitation, MM = Missing Value Source: NWS Daily Summary

Daily Weather History Graph

Daily Weather History Graph

Search for Another Location

Airport or City:

Trip Planner

Search our weather history database for the weather conditions in past years. The results will help you decide how hot, cold, wet, or windy it might be!

Date:

Astronomy

Mar. 17, 2014 Rise Set
Actual Time 6:55 AM EDT 6:55 PM EDT
Civil Twilight 6:27 AM EDT 7:24 PM EDT
Nautical Twilight 5:53 AM EDT 7:57 PM EDT
Astronomical Twilight 5:19 AM EDT 8:32 PM EDT
Moon 8:12 PM EDT (3/17) 7:07 AM EDT (3/17)
Length of Visible Light 12h 57m
Length of Day
12h 00m
Full, 99% of the Moon is Illuminated
Mar 17
Full
Mar 23
Last Quarter
Mar 30
New
Apr 7
First Quarter
Apr 15
Full

Hourly Weather History & Observations

Time (EDT) Temp. Windchill Dew Point Humidity Pressure Visibility Wind Dir Wind Speed Gust Speed Precip Events Conditions
12:15 AM 9.5 °F -0.3 °F -6.2 °F 49% 30.20 in 10.0 mi WNW 5.8 mph - N/A   Unknown
12:35 AM 8.8 °F -1.1 °F -6.2 °F 51% 30.19 in 10.0 mi WNW 5.8 mph - N/A   Unknown
12:55 AM 8.1 °F -0.5 °F -6.3 °F 52% 30.19 in 10.0 mi WNW 4.6 mph - N/A   Unknown
1:15 AM 7.3 °F - -6.2 °F 54% 30.19 in 10.0 mi Calm Calm - N/A   Unknown
1:35 AM 4.6 °F - -6.7 °F 59% 30.19 in 10.0 mi Calm Calm - N/A   Unknown
1:55 AM 3.9 °F - -6.5 °F 62% 30.18 in 10.0 mi Calm Calm - N/A   Unknown
2:15 AM 5.2 °F - -6.9 °F 58% 30.18 in 10.0 mi Calm Calm - N/A   Unknown
2:35 AM 3.2 °F - -6.9 °F 63% 30.18 in 10.0 mi Calm Calm - N/A   Unknown
2:55 AM 2.7 °F - -6.0 °F 67% 30.17 in 10.0 mi Calm Calm - N/A   Unknown
3:15 AM 3.0 °F -4.4 °F -7.2 °F 62% 30.17 in 10.0 mi NW 3.5 mph - N/A   Unknown
3:35 AM 3.4 °F -4.0 °F -7.2 °F 61% 30.16 in 10.0 mi NNW 3.5 mph - N/A   Unknown
3:55 AM 4.1 °F -3.2 °F -6.9 °F 60% 30.15 in 10.0 mi NNW 3.5 mph - N/A   Unknown
4:15 AM 4.6 °F -4.5 °F -7.6 °F 57% 30.14 in 10.0 mi WNW 4.6 mph - N/A   Unknown
4:35 AM 4.5 °F -4.7 °F -7.6 °F 57% 30.14 in 10.0 mi NW 4.6 mph - N/A   Unknown
4:55 AM 4.1 °F -6.7 °F -7.6 °F 58% 30.14 in 10.0 mi NW 5.8 mph - N/A   Unknown
5:15 AM 4.6 °F -2.5 °F -8.0 °F 56% 30.14 in 10.0 mi WNW 3.5 mph - N/A   Unknown
5:35 AM 4.5 °F -4.7 °F -8.5 °F 55% 30.14 in 10.0 mi West 4.6 mph - N/A   Unknown
5:55 AM 3.9 °F -3.4 °F -8.5 °F 56% 30.14 in 10.0 mi WNW 3.5 mph - N/A   Unknown
6:15 AM 4.1 °F -5.1 °F -8.5 °F 56% 30.15 in 10.0 mi WNW 4.6 mph - N/A   Unknown
6:35 AM 3.2 °F - -8.5 °F 58% 30.14 in 10.0 mi Calm Calm - N/A   Unknown
6:55 AM 3.2 °F -7.8 °F -8.7 °F 58% 30.15 in 10.0 mi West 5.8 mph - N/A   Unknown
7:15 AM 3.9 °F -8.2 °F -8.9 °F 55% 30.16 in 10.0 mi West 6.9 mph - N/A   Unknown
7:35 AM 4.5 °F -6.3 °F -8.5 °F 55% 30.16 in 10.0 mi WNW 5.8 mph - N/A   Unknown
7:55 AM 5.4 °F -5.2 °F -8.7 °F 52% 30.17 in 10.0 mi NW 5.8 mph - N/A   Unknown
8:15 AM 5.9 °F -5.8 °F -8.5 °F 52% 30.17 in 10.0 mi WNW 6.9 mph - N/A   Unknown
8:35 AM 6.8 °F -6.9 °F -8.5 °F 50% 30.16 in 10.0 mi WNW 9.2 mph - N/A   Unknown
8:55 AM 7.7 °F -2.4 °F -8.7 °F 47% 30.17 in 10.0 mi West 5.8 mph - N/A   Unknown
9:15 AM 8.6 °F - -9.0 °F 45% 30.17 in 10.0 mi Calm Calm - N/A   Unknown
9:35 AM 9.1 °F -0.7 °F -8.7 °F 44% 30.16 in 10.0 mi West 5.8 mph - N/A   Unknown
9:55 AM 9.9 °F -1.1 °F -8.9 °F 43% 30.16 in 10.0 mi West 6.9 mph - N/A   Unknown
10:15 AM 11.1 °F 1.7 °F -8.5 °F 41% 30.15 in 10.0 mi WNW 5.8 mph - N/A   Unknown
10:35 AM 12.9 °F 1.6 °F -8.7 °F 38% 30.14 in 10.0 mi West 8.1 mph - N/A   Unknown
10:55 AM 14.0 °F 3.9 °F -9.8 °F 34% 30.13 in 10.0 mi West 6.9 mph - N/A   Unknown
11:15 AM 15.1 °F 5.2 °F -9.0 °F 34% 30.13 in 10.0 mi West 6.9 mph - N/A   Unknown
11:35 AM 16.3 °F 9.2 °F -9.6 °F 31% 30.12 in 10.0 mi West 4.6 mph - N/A   Unknown
11:55 AM 17.4 °F 7.1 °F -9.4 °F 30% 30.11 in 10.0 mi West 8.1 mph - N/A   Unknown
12:15 PM 17.8 °F 7.5 °F -8.5 °F 31% 30.10 in 10.0 mi West 8.1 mph - N/A   Unknown
12:35 PM 18.0 °F 4.8 °F -9.2 °F 30% 30.09 in 10.0 mi West 12.7 mph 16.1 mph N/A   Unknown
12:55 PM 18.7 °F 7.8 °F -8.9 °F 29% 30.08 in 10.0 mi West 9.2 mph 19.6 mph N/A   Unknown
1:15 PM 19.8 °F 7.1 °F -8.9 °F 28% 30.08 in 10.0 mi West 12.7 mph 19.6 mph N/A   Unknown
1:35 PM 20.7 °F 6.6 °F -8.5 °F 27% 30.08 in 10.0 mi West 16.1 mph 21.9 mph N/A   Unknown
1:55 PM 20.8 °F 7.9 °F -8.5 °F 27% 30.08 in 10.0 mi West 13.8 mph 21.9 mph N/A   Unknown
2:15 PM 21.7 °F 10.2 °F -7.6 °F 27% 30.07 in 10.0 mi West 11.5 mph 17.3 mph N/A   Unknown
2:35 PM 22.3 °F 11.5 °F -7.4 °F 27% 30.06 in 10.0 mi West 10.4 mph 17.3 mph N/A   Unknown
2:55 PM 23.0 °F 12.4 °F -6.5 °F 27% 30.04 in 10.0 mi WNW 10.4 mph 16.1 mph N/A   Unknown
3:15 PM 23.5 °F 12.4 °F -6.5 °F 27% 30.04 in 10.0 mi NW 11.5 mph 17.3 mph N/A   Unknown
3:35 PM 23.5 °F 13.7 °F -7.8 °F 25% 30.03 in 10.0 mi West 9.2 mph - N/A   Unknown
3:55 PM 24.6 °F 13.8 °F -6.5 °F 25% 30.03 in 10.0 mi West 11.5 mph 17.3 mph N/A   Unknown
4:15 PM 23.9 °F 13.5 °F -6.5 °F 26% 30.04 in 10.0 mi NW 10.4 mph 19.6 mph N/A   Unknown
4:35 PM 24.3 °F 12.7 °F -7.4 °F 25% 30.04 in 10.0 mi NW 12.7 mph 16.1 mph N/A   Unknown
4:55 PM 24.3 °F 14.6 °F -6.7 °F 26% 30.04 in 10.0 mi WNW 9.2 mph 16.1 mph N/A   Unknown
5:15 PM 24.6 °F 13.8 °F -6.3 °F 26% 30.05 in 10.0 mi NW 11.5 mph 17.3 mph N/A   Unknown
5:35 PM 24.4 °F 16.5 °F -6.7 °F 25% 30.05 in 10.0 mi NNW 6.9 mph 17.3 mph N/A   Unknown
5:55 PM 24.1 °F 15.2 °F -7.1 °F 25% 30.05 in 10.0 mi NW 8.1 mph - N/A   Unknown
6:15 PM 24.1 °F 15.2 °F -7.6 °F 25% 30.06 in 10.0 mi NW 8.1 mph - N/A   Unknown
6:35 PM 23.4 °F 14.3 °F -6.7 °F 27% 30.06 in 10.0 mi NNW 8.1 mph - N/A   Unknown
6:55 PM 21.9 °F 13.4 °F -6.2 °F 29% 30.06 in 10.0 mi NNW 6.9 mph - N/A   Unknown
7:15 PM 21.9 °F 17.2 °F -7.8 °F 27% 30.07 in 10.0 mi NNW 3.5 mph - N/A   Unknown
7:35 PM 21.4 °F 16.6 °F -7.8 °F 27% 30.08 in 10.0 mi WNW 3.5 mph - N/A   Unknown
7:55 PM 18.5 °F 11.7 °F -4.4 °F 36% 30.08 in 10.0 mi West 4.6 mph - N/A   Unknown
8:15 PM 18.0 °F 11.1 °F -5.3 °F 36% 30.09 in 10.0 mi West 4.6 mph - N/A   Unknown
8:35 PM 17.1 °F 11.7 °F -6.0 °F 36% 30.10 in 10.0 mi WNW 3.5 mph - N/A   Unknown
8:55 PM 16.7 °F - -6.7 °F 35% 30.10 in 10.0 mi Calm Calm - N/A   Unknown
9:15 PM 16.7 °F - -7.8 °F 33% 30.11 in 10.0 mi Calm Calm - N/A   Unknown
9:35 PM 16.0 °F 10.4 °F -8.1 °F 34% 30.13 in 10.0 mi NNW 3.5 mph - N/A   Unknown
9:55 PM 14.5 °F 7.1 °F -6.5 °F 39% 30.13 in 10.0 mi NW 4.6 mph - N/A   Unknown
10:15 PM 14.2 °F 8.4 °F -6.7 °F 39% 30.14 in 10.0 mi WNW 3.5 mph - N/A   Unknown
10:35 PM 11.8 °F 5.7 °F -4.4 °F 48% 30.14 in 10.0 mi West 3.5 mph - N/A   Unknown
10:55 PM 10.6 °F - -4.2 °F 51% 30.15 in 10.0 mi Calm Calm - N/A   Unknown
11:15 PM 9.1 °F - -3.5 °F 57% 30.14 in 10.0 mi Calm Calm - N/A   Unknown
11:35 PM 7.2 °F - -1.1 °F 69% 30.15 in 10.0 mi Calm Calm - N/A   Unknown
11:55 PM 7.2 °F - -1.3 °F 68% 30.15 in 10.0 mi Calm Calm - N/A   Unknown